Pittsfield, MA

12:34 PM EDT on April 28, 2017 (GMT -0400)
Pittsfield Municipal

Weather History for KPSF - November, 2012

Change the Weather History Date:

Tuesday, November 27, 2012

  Actual Average Record
Temperature  
Mean Temperature 30 °F 34 °F  
Max Temperature 33 °F 42 °F 61 °F (1960)
Min Temperature 27 °F 26 °F 2 °F (1938)
Degree Days  
Heating Degree Days 35 31  
Month to date heating degree days 762 720  
Since 1 July heating degree days 1406 1556  
Cooling Degree Days 0 0  
Month to date cooling degree days 0 0  
Year to date cooling degree days 465 290  
Moisture  
Dew Point 29 °F    
Average Humidity 93    
Maximum Humidity 100    
Minimum Humidity 85    
Precipitation  
Precipitation 0.05 in 0.14 in 1.71 in (1999)
Month to date precipitation 0.69 3.52  
Year to date precipitation 32.51 41.97  
Sea Level Pressure  
Sea Level Pressure 30.22 in    
Wind  
Wind Speed 0 mph (WSW)    
Max Wind Speed 7 mph    
Max Gust Speed 9 mph    
Visibility 4 miles    
Events Snow    
T = Trace of Precipitation, MM = Missing Value Source: NWS Daily Summary

Daily Weather History Graph

Daily Weather History Graph

Search for Another Location

Airport or City:

Trip Planner

Search our weather history database for the weather conditions in past years. The results will help you decide how hot, cold, wet, or windy it might be!

Date:

Astronomy

Nov. 27, 2012 Rise Set
Actual Time 6:59 AM EST 4:22 PM EST
Civil Twilight 6:27 AM EST 4:53 PM EST
Nautical Twilight 5:53 AM EST 5:28 PM EST
Astronomical Twilight 5:19 AM EST 6:02 PM EST
Moon 3:52 PM EST (11/27) 6:01 AM EST (11/27)
Length of Visible Light 10h 25m
Length of Day
9h 23m
Waxing Gibbous, 99% of the Moon is Illuminated
Nov 27
Waxing Gibbous
Nov 28
Full
Dec 6
Last Quarter
Dec 13
New
Dec 20
First Quarter

Hourly Weather History & Observations

Time (EST) Temp. Windchill Dew Point Humidity Pressure Visibility Wind Dir Wind Speed Gust Speed Precip Events Conditions
12:54 AM 28.0 °F - 25.0 °F 88% 30.21 in 10.0 mi Calm Calm - N/A   Overcast
1:54 AM 28.0 °F - 25.0 °F 88% 30.22 in 10.0 mi Calm Calm - N/A   Overcast
2:54 AM 28.9 °F - 25.0 °F 85% 30.23 in 10.0 mi Calm Calm - N/A   Overcast
3:54 AM 28.0 °F - 25.0 °F 88% 30.23 in 10.0 mi Calm Calm - N/A   Overcast
4:54 AM 28.9 °F - 25.0 °F 85% 30.23 in 10.0 mi Calm Calm - N/A   Overcast
5:54 AM 28.9 °F - 25.0 °F 85% 30.24 in 10.0 mi Calm Calm - N/A   Overcast
6:54 AM 28.9 °F 25.2 °F 26.1 °F 89% 30.25 in 2.5 mi ESE 3.5 mph - 0.00 in Snow Light Snow
7:12 AM 28.4 °F - 28.4 °F 100% 30.21 in 4.0 mi Calm Calm - 0.00 in Snow Light Snow
7:54 AM 30.0 °F - 28.0 °F 92% 30.26 in 9.0 mi Calm Calm - 0.00 in   Overcast
8:11 AM 30.2 °F 23.4 °F 26.6 °F 86% 30.23 in 1.8 mi WSW 6.9 mph - 0.00 in Snow Light Snow
8:32 AM 30.2 °F 26.7 °F 28.4 °F 93% 30.23 in 2.0 mi Variable 3.5 mph - 0.00 in Snow Light Snow
8:47 AM 30.2 °F - 28.4 °F 93% 30.23 in 4.0 mi Calm Calm - 0.00 in   Overcast
8:54 AM 30.9 °F - 28.0 °F 89% 30.27 in 6.0 mi Calm Calm - 0.00 in   Overcast
9:20 AM 30.2 °F 25.4 °F 28.4 °F 93% 30.24 in 2.0 mi Variable 4.6 mph - 0.00 in Snow Light Snow
9:27 AM 30.2 °F 25.4 °F 28.4 °F 93% 30.24 in 1.0 mi SW 4.6 mph - 0.00 in Snow Light Snow
9:52 AM 30.2 °F - 28.4 °F 93% 30.24 in 0.8 mi Calm Calm - 0.00 in Snow Light Snow
9:54 AM 30.9 °F - 30.0 °F 96% 30.28 in 0.8 mi Calm Calm - 0.00 in Snow Light Snow
10:04 AM 30.2 °F 26.7 °F 30.2 °F 100% 30.25 in 1.5 mi WSW 3.5 mph - 0.00 in Snow Light Snow
10:20 AM 30.2 °F 25.4 °F 28.4 °F 93% 30.24 in 2.0 mi West 4.6 mph - 0.00 in Snow Light Snow
10:29 AM 32.0 °F 28.7 °F 28.4 °F 87% 30.24 in 1.8 mi WSW 3.5 mph - 0.00 in Snow Light Snow
10:54 AM 32.0 °F - 30.0 °F 92% 30.28 in 1.2 mi Calm Calm - 0.01 in Snow Light Snow
11:02 AM 32.0 °F 28.7 °F 30.2 °F 93% 30.24 in 1.2 mi WSW 3.5 mph - 0.00 in Snow Light Snow
11:54 AM 32.0 °F - 30.0 °F 92% 30.26 in 1.8 mi Calm Calm - 0.01 in Snow Light Snow
12:09 PM 32.0 °F - 30.2 °F 93% 30.22 in 1.2 mi Calm Calm - 0.00 in Snow Light Snow
12:16 PM 32.0 °F - 30.2 °F 93% 30.21 in 1.0 mi Calm Calm - 0.00 in Snow Light Snow
12:20 PM 32.0 °F - 30.2 °F 93% 30.21 in 1.0 mi Calm Calm - 0.00 in Snow Light Snow
12:39 PM 32.0 °F - 30.2 °F 93% 30.21 in 1.2 mi Calm Calm - 0.01 in Snow Light Snow
12:46 PM 32.0 °F - 30.2 °F 93% 30.21 in 1.2 mi Calm Calm - 0.01 in Snow Light Snow
12:54 PM 33.1 °F - 30.9 °F 92% 30.25 in 1.2 mi Calm Calm - 0.01 in Snow Light Snow
1:16 PM 32.0 °F - 30.2 °F 93% 30.20 in 1.8 mi Calm Calm - 0.00 in Snow Light Snow
1:25 PM 32.0 °F - 30.2 °F 93% 30.20 in 1.5 mi Calm Calm - 0.00 in Snow Light Snow
1:54 PM 32.0 °F - 30.0 °F 92% 30.23 in 1.2 mi Calm Calm - 0.01 in Snow Light Snow
2:03 PM 32.0 °F - 30.2 °F 93% 30.19 in 1.5 mi Calm Calm - 0.00 in Snow Light Snow
2:14 PM 32.0 °F - 30.2 °F 93% 30.19 in 2.0 mi Calm Calm - 0.00 in Snow Light Snow
2:31 PM 32.0 °F - 30.2 °F 93% 30.19 in 1.5 mi Calm Calm - 0.00 in Snow Light Snow
2:43 PM 32.0 °F - 30.2 °F 93% 30.19 in 1.2 mi Calm Calm - 0.00 in Snow Light Snow
2:50 PM 32.0 °F - 30.2 °F 93% 30.19 in 1.2 mi Calm Calm - 0.00 in Snow Light Snow
2:54 PM 32.0 °F - 30.0 °F 92% 30.22 in 1.5 mi Calm Calm - 0.01 in Snow Light Snow
3:12 PM 32.0 °F - 30.2 °F 93% 30.19 in 1.5 mi Calm Calm - 0.00 in Snow Light Snow
3:47 PM 32.0 °F - 30.2 °F 93% 30.19 in 2.0 mi Calm Calm - 0.00 in Snow Light Snow
3:54 PM 32.0 °F - 30.9 °F 96% 30.23 in 3.0 mi Calm Calm - 0.00 in   Overcast
4:07 PM 32.0 °F - 30.2 °F 93% 30.19 in 5.0 mi Calm Calm - N/A   Overcast
4:54 PM 32.0 °F - 30.9 °F 96% 30.22 in 5.0 mi Calm Calm - N/A   Overcast
5:41 PM 32.0 °F - 30.2 °F 93% 30.18 in 5.0 mi Calm Calm - N/A   Overcast
5:54 PM 30.9 °F - 30.0 °F 96% 30.22 in 4.0 mi Calm Calm - N/A   Overcast
6:54 PM 32.0 °F 28.7 °F 28.9 °F 88% 30.23 in 10.0 mi NNE 3.5 mph - N/A   Overcast
7:54 PM 30.9 °F - 28.9 °F 92% 30.23 in 9.0 mi Calm Calm - N/A   Overcast
8:54 PM 30.0 °F - 28.0 °F 92% 30.22 in 9.0 mi Calm Calm - N/A   Overcast
9:54 PM 30.0 °F - 27.0 °F 88% 30.23 in 10.0 mi Calm Calm - N/A   Overcast
10:54 PM 28.0 °F - 26.1 °F 92% 30.22 in 7.0 mi Calm Calm - N/A   Overcast
11:54 PM 27.0 °F - 26.1 °F 96% 30.21 in 8.0 mi Calm Calm - N/A   Overcast